Hattiesburg, MS

3:50 AM CST on February 25, 2017 (GMT -0600)
Chain Municipal

Weather History for KHBG - February, 2013

Change the Weather History Date:

Tuesday, February 26, 2013

  Actual Average Record
Temperature  
Mean Temperature 53 °F 55 °F  
Max Temperature 64 °F 67 °F 83 °F (1977)
Min Temperature 41 °F 43 °F 23 °F (1974)
Degree Days  
Heating Degree Days 12 11  
Month to date heating degree days 283 358  
Since 1 July heating degree days 1362 1657  
Cooling Degree Days 0 1  
Month to date cooling degree days 0 1  
Year to date cooling degree days 28 7  
Growing Degree Days 2 (Base 50)    
Moisture  
Dew Point 37 °F    
Average Humidity 65    
Maximum Humidity 89    
Minimum Humidity 40    
Precipitation  
Precipitation 0.00 in 0.20 in 1.69 in (2003)
Month to date precipitation 10.50 5.00  
Year to date precipitation 18.43 10.74  
Sea Level Pressure  
Sea Level Pressure 29.74 in    
Wind  
Wind Speed 9 mph (West)    
Max Wind Speed 21 mph    
Max Gust Speed 30 mph    
Visibility 10 miles    
Events      
T = Trace of Precipitation, MM = Missing Value Source: NWS Daily Summary

Daily Weather History Graph

Daily Weather History Graph

Search for Another Location

Airport or City:

Trip Planner

Search our weather history database for the weather conditions in past years. The results will help you decide how hot, cold, wet, or windy it might be!

Date:

Astronomy

Feb. 26, 2013 Rise Set
Actual Time 6:26 AM CST 5:53 PM CST
Civil Twilight 6:02 AM CST 6:17 PM CST
Nautical Twilight 5:34 AM CST 6:45 PM CST
Astronomical Twilight 5:06 AM CST 7:13 PM CST
Moon 7:01 PM CST (2/26) 6:35 AM CST (2/26)
Length of Visible Light 12h 15m
Length of Day
11h 26m
Full, 99% of the Moon is Illuminated
Feb 26
Full
Mar 4
Last Quarter
Mar 11
New
Mar 19
First Quarter
Mar 27
Full

Hourly Weather History & Observations

Time (CST) Temp. Dew Point Humidity Pressure Visibility Wind Dir Wind Speed Gust Speed Precip Events Conditions
12:53 AM 62.1 °F 53.1 °F 72% 29.51 in 10.0 mi WSW 12.7 mph 20.7 mph N/A   Clear
1:53 AM 57.9 °F 45.0 °F 62% 29.54 in 10.0 mi West 10.4 mph - N/A   Clear
2:53 AM 55.0 °F 39.9 °F 57% 29.57 in 10.0 mi West 10.4 mph 17.3 mph N/A   Clear
3:53 AM 51.1 °F 36.0 °F 56% 29.59 in 10.0 mi West 9.2 mph 18.4 mph N/A   Clear
4:53 AM 50.0 °F 34.0 °F 54% 29.60 in 10.0 mi West 10.4 mph 18.4 mph N/A   Clear
5:53 AM 48.0 °F 34.0 °F 58% 29.63 in 10.0 mi West 11.5 mph - N/A   Clear
6:53 AM 46.9 °F 33.1 °F 59% 29.67 in 10.0 mi West 12.7 mph 18.4 mph N/A   Mostly Cloudy
7:53 AM 48.0 °F 33.1 °F 56% 29.70 in 10.0 mi West 10.4 mph - N/A   Overcast
8:53 AM 48.9 °F 34.0 °F 56% 29.72 in 10.0 mi SW 12.7 mph - N/A   Overcast
9:53 AM 50.0 °F 34.0 °F 54% 29.74 in 10.0 mi West 16.1 mph 24.2 mph N/A   Overcast
10:53 AM 52.0 °F 34.0 °F 50% 29.77 in 10.0 mi WSW 18.4 mph 26.5 mph N/A   Overcast
11:53 AM 52.0 °F 35.1 °F 53% 29.77 in 10.0 mi West 15.0 mph - N/A   Overcast
12:53 PM 53.1 °F 35.1 °F 50% 29.75 in 10.0 mi West 13.8 mph - N/A   Scattered Clouds
1:53 PM 57.0 °F 36.0 °F 45% 29.74 in 10.0 mi SW 16.1 mph 20.7 mph N/A   Partly Cloudy
2:53 PM 57.0 °F 35.1 °F 44% 29.75 in 10.0 mi WSW 11.5 mph 23.0 mph N/A   Partly Cloudy
3:53 PM 59.0 °F 36.0 °F 42% 29.75 in 10.0 mi West 10.4 mph - N/A   Clear
4:53 PM 57.0 °F 37.0 °F 47% 29.78 in 10.0 mi West 11.5 mph - N/A   Clear
5:53 PM 54.0 °F 36.0 °F 51% 29.81 in 10.0 mi West 6.9 mph - N/A   Clear
6:53 PM 52.0 °F 37.0 °F 57% 29.85 in 10.0 mi Calm Calm - N/A   Clear
7:53 PM 46.0 °F 39.0 °F 76% 29.88 in 10.0 mi Calm Calm - N/A   Clear
8:53 PM 45.0 °F 39.0 °F 80% 29.90 in 10.0 mi Calm Calm - N/A   Clear
9:53 PM 43.0 °F 39.0 °F 86% 29.92 in 10.0 mi Calm Calm - N/A   Clear
10:53 PM 42.1 °F 39.0 °F 89% 29.92 in 10.0 mi Calm Calm - N/A   Clear
11:53 PM 41.0 °F 37.9 °F 89% 29.93 in 10.0 mi Calm Calm - N/A   Clear